443P/PanSTARRS-Christensen (2005)

Japanese version
Home page
Updated on May 29, 2022

---------------------------------------------------------------------

* Profile

Designation 443P/2005 N11

* Orbital Elements

                    Epoch = 2005 Dec. 16.0 TT
     T = 2005 Dec. 25.44585 TT        Peri. = 144.90028
     e = 0.2851533                    Node  = 109.03282 2000.0
     q = 2.9458904 AU                 Incl. =  19.89313
       a =  4.1210102 AU   n = 0.11781445   P =   8.37 years

* Magnitudes Graph

        m1 = 13.0 + 5 log d + 10.0 log r

---------------------------------------------------------------------

The orbital elements are printed on CBET 5117.
The magnitudes graphs are made with Comet for Windows.

---------------------------------------------------------------------

Copyright(C) Seiichi Yoshida (comet@aerith.net). All rights reserved.